Location: Mentone
(34.5413°N, 85.5351°W)
Time: 08:14:50
(UTC-06:00)

S-56A Canister/Altair - Visible Passes

Search period start: 04 December 2016 00:00
Search period end: 14 December 2016 00:00
Orbit: 639 x 2495 km, 38.9° (Epoch: 02 December)

Date Brightness Start Highest point End Pass type
(mag) Time Alt. Az. Time Alt. Az. Time Alt. Az.
04 Dec 11.6 01:39:04 11° SSE 01:39:04 11° SSE 01:39:28 10° SSE visible
04 Dec 8.8 18:26:15 10° WSW 18:33:39 85° NNW 18:37:59 41° ENE visible
04 Dec 10.0 20:30:22 10° W 20:35:26 41° WNW 20:35:26 41° WNW visible
05 Dec 8.6 17:54:06 10° WSW 18:00:59 90° SE 18:07:15 27° ENE visible
05 Dec 9.4 19:58:01 10° W 20:04:41 58° NW 20:04:41 58° NW visible
06 Dec 8.5 17:21:59 10° WSW 17:28:24 83° SSE 17:36:30 16° ENE visible
06 Dec 9.0 19:25:43 10° W 19:33:52 69° N 19:33:56 69° N visible
06 Dec 11.0 21:29:57 10° WNW 21:31:22 17° WNW 21:31:22 17° WNW visible
07 Dec 8.5 16:49:56 10° WSW 16:55:54 76° SSE 17:05:03 10° ENE visible
07 Dec 8.9 18:53:27 10° W 19:01:01 69° N 19:03:11 56° NE visible
07 Dec 10.5 20:57:33 10° WNW 21:00:37 26° WNW 21:00:37 26° WNW visible
08 Dec 8.8 18:21:14 10° W 18:28:16 69° N 18:32:26 38° ENE visible
08 Dec 9.9 20:25:13 10° WNW 20:29:52 40° WNW 20:29:52 40° WNW visible
09 Dec 8.6 17:49:04 10° W 17:55:36 70° N 18:01:42 25° ENE visible
09 Dec 9.3 19:52:56 10° WNW 19:59:09 58° NW 19:59:09 58° NW visible
10 Dec 8.5 17:16:55 10° W 17:23:00 71° N 17:30:59 14° ENE visible
10 Dec 8.9 19:20:41 10° WNW 19:28:26 72° N 19:28:26 72° N visible
10 Dec 11.0 21:24:36 10° WNW 21:25:53 16° WNW 21:25:53 16° WNW visible
11 Dec 8.7 18:48:29 10° WNW 18:55:42 69° N 18:57:45 55° ENE visible
11 Dec 10.4 20:52:14 10° WNW 20:55:12 26° WNW 20:55:12 26° WNW visible
12 Dec 8.6 18:16:18 10° WNW 18:23:01 66° N 18:27:06 36° ENE visible
12 Dec 9.8 20:19:56 10° WNW 20:24:34 42° WNW 20:24:34 42° WNW visible
13 Dec 8.5 17:44:10 10° WNW 17:50:23 64° N 17:56:32 22° E visible
13 Dec 9.1 19:47:43 10° WNW 19:53:59 66° WNW 19:53:59 66° WNW visible
